Location: Unspecified
(50.7693°N, 0.0000°E)
Time: 09:00:39
(UTC+00:00)

A-11 Canister half - Pass Details

Date: 26 June 2019
Orbit: 1526 x 1683 km, 47.3° (Epoch: 24 July)

Event Time Altitude Azimuth Distance (km) Brightness Sun altitude
Rises 09:35:13 0° 287° (WNW) 4,691 11.2 50.5°
Reaches altitude 10° 09:38:33 10° 279° (W) 3,700 10.8 50.9°
Maximum altitude 09:46:41 36° 218° (SW) 2,248 10.3 52.0°
Drops below altitude 10° 09:54:52 10° 156° (SSE) 3,711 11.7 53.1°
Sets 09:58:14 0° 148° (SSE) 4,708 12.1 53.5°
